This is the latest recevied weather packets stored in our database for station/object KG7MRB. If no packets are shown the sender has not sent any weather packets the latest 10 day(s).
| Time | Temp. | Humidity | Pressure | Rain* | Wind** | Luminosity | Snow |
|---|---|---|---|---|---|---|---|
| 1777745516 | 22.78° C | 43% | 1035 hPa | 0 mm | - | 588 W/m² | - |
| 1777745213 | 22.22° C | 46% | 1034.9 hPa | 0 mm | - | 581 W/m² | - |
| 1777744910 | 22.22° C | 46% | 1034.9 hPa | 0 mm | - | 572 W/m² | - |
| 1777744609 | 21.67° C | 47% | 1035.1 hPa | 0 mm | - | 564 W/m² | - |
| 1777744305 | 21.67° C | 47% | 1035.1 hPa | 0 mm | - | 558 W/m² | - |
| 1777744002 | 21.67° C | 48% | 1035.2 hPa | 0 mm | - | 551 W/m² | - |
| 1777743698 | 21.11° C | 55% | 1035.2 hPa | 0 mm | - | 531 W/m² | - |
| 1777743396 | 20.56° C | 52% | 1035.1 hPa | 0 mm | - | 410 W/m² | - |
| 1777743094 | 21.11° C | 53% | 1035.4 hPa | 0 mm | - | 316 W/m² | - |
| 1777742791 | 20.56° C | 55% | 1035.5 hPa | 0 mm | - | 499 W/m² | - |
| 1777742487 | 20° C | 61% | 1035.6 hPa | 0 mm | - | 511 W/m² | - |
| 1777742183 | 20° C | 60% | 1035.4 hPa | 0 mm | - | 497 W/m² | - |
| 1777741880 | 20° C | 62% | 1035.6 hPa | 0 mm | - | 492 W/m² | - |
| 1777741577 | 18.89° C | 66% | 1035.6 hPa | 0 mm | - | 479 W/m² | - |
| 1777741274 | 18.89° C | 64% | 1035.7 hPa | 0 mm | - | 465 W/m² | - |
| 1777740971 | 18.33° C | 68% | 1035.7 hPa | 0 mm | - | 444 W/m² | - |
| 1777740668 | 16.67° C | 72% | 1035.9 hPa | 0 mm | - | 451 W/m² | - |
| 1777740364 | 17.22° C | 71% | 1036 hPa | 0 mm | - | 146 W/m² | - |
| 1777740061 | 17.22° C | 70% | 1036 hPa | 0 mm | - | 471 W/m² | - |
| 1777739756 | 16.67° C | 70% | 1036.1 hPa | 0 mm | - | 319 W/m² | - |
| 1777739454 | 16.67° C | 71% | 1036.2 hPa | 0 mm | - | 435 W/m² | - |
| 1777739150 | 16.67° C | 73% | 1036.2 hPa | 0 mm | - | 237 W/m² | - |
| 1777738848 | 16.67° C | 76% | 1036.3 hPa | 0 mm | - | 393 W/m² | - |
| 1777738544 | 16.11° C | 76% | 1036.2 hPa | 0 mm | - | 372 W/m² | - |
| 1777738242 | 15.56° C | 80% | 1036.5 hPa | 0 mm | - | 359 W/m² | - |
* Rain latest hour (hover to see other rain measurements)
** Current wind speed in m/s (hover to see current wind gust speed)